{"data":{"norad_id":81599,"intl_designator":"","name":"UNKNOWN","alt_names":[],"object_type":"UNKNOWN","status":"UNKNOWN","operator":null,"country":null,"launch_date":null,"launch_site_code":null,"launch_vehicle":null,"mission":null,"orbit_class":"UNKNOWN","rcs_meters":null,"size_class":null,"mass_kg":null,"dimensions":null,"purposes":[],"wikipedia_slug":null,"has_3d_model":false,"image_url":null,"decayed_at":null,"tle_current":{"epoch":"2026-05-23T09:48:16.543584Z","epoch_age_seconds":205840,"freshness":"STALE","line1":"1 81599U          26143.40852481 -.00000148  00000+0 -15027-3 0  9992","line2":"2 81599  67.2949 291.1890 0249155 327.5579  60.3038 13.31622500606606","mean_motion":13.316225,"eccentricity":0.0249155,"inclination_deg":67.2949,"raan_deg":291.189,"arg_perigee_deg":327.5579,"mean_anomaly_deg":60.3038,"bstar":-0.00015027,"rev_number":60660,"period_min":108.1387555407,"perigee_km":953.31526320145,"apogee_km":1327.9839177925,"semimajor_km":7518.786590497,"source":"CELESTRAK","updated_at":"2026-05-25T13:38:11.078204Z"}}}